BIEG W STRONĘ ŻYCIA

Organizator/ Organizer:
Fundacja „W Stronę Życia”
Data/ Date:
2018-09-08
Miejsce/ Place:
Bydgoszcz
Dystans/ Distance:
5 km
Zgłoszonych/ Registered:
465
Wystartowało/ Started:
375
Nie ukończyło/ Not finished:
0
Ukończyło/ Finished:
375
Na trasie/ On track:
0

Klasyfikacja/ Classiffication: K-Open

Wyniki nieoficjalne !!!
Pełne wyniki/ Full Results : PDF | CSV
Wyniki uproszczone/ Simple results : PDF | PDF2 | CSV
 
Klasyfikacje w punktach pomiarowych/ Classification for time points: Meta
Klasyfikacje wg kategorii/ Classification by category: Wszyscy | K-Open | M-Open

Msc/ RnkZawodnik/ NameNumer/ BibKlub/ TeamMiejscowość/ CityKraj/ CountryKategoria/ CategoryMkat/ CatRnkK/M/ W/MCzas startu/Start timeCzas
netto
5km
Czas
brutto
5km
Różn/ GapTempo
min/km
Tempo
km/h
       
1SZENK Marta 338BYDGOSZCZK-Open1K 100:00:0300:20:54.6000:20:58.15 4:1114.3
2RÓŻOWICZ Aleksandra 112BYDGOSZCZK-Open2K 200:00:0700:21:35.6500:21:43.10+00:00:414:1913.9
3OLSZEWSKA Adrianna 291MROCZAK-Open3K 300:00:0600:21:44.5500:21:50.95+00:00:494:2013.8
4NAPIERAJ Sonia 196ALBANNERSBYDGOSZCZK-Open4K 400:00:1200:23:05.2000:23:18.15+00:02:104:3713
5MICHALSKA Daria 211BYDGOSZCZK-Open5K 500:00:0900:23:19.1500:23:28.95+00:02:244:3912.9
6BIERNACKA Magdalena 188OSIELSKOK-Open6K 600:00:0500:23:47.7500:23:53.70+00:02:534:4512.6
7SAK Joanna 307DECATHLON TEAM INOWROCŁAWINOWROCŁAWK-Open7K 700:00:0900:23:56.8000:24:06.25+00:03:024:4712.5
8PODSIEDLIK Zuzanna 136BYDGOSZCZK-Open8K 800:00:1200:24:16.1500:24:28.40+00:03:214:5112.4
9OZDOBA Agnieszka 403BYDGOSZCZK-Open9K 900:00:1200:24:35.4500:24:47.90+00:03:404:5512.2
10CICHOŃSKA - BAZAK Marzena 374BYDGOSZCZK-Open10K 1000:00:0800:24:53.2000:25:01.50+00:03:584:5812.1
11RUDEWICZ Monika 90BYDGOSZCZK-Open11K 1100:00:0800:24:54.7000:25:03.20+00:04:004:5912
12JANKOWSKA Agnieszka 208MAKSYMILIANOWOK-Open12K 1200:00:1700:24:56.4000:25:13.80+00:04:014:5912
13KALINOWSKA Anna 68UKS OMEGA GRUTAGRUDZIĄDZK-Open13K 1300:00:0500:25:04.8000:25:10.45+00:04:105:0112
14MUSIELEWSKA Daria 373BYDGOSZCZK-Open14K 1400:00:0700:25:08.3000:25:15.30+00:04:135:0111.9
15SAWICZ-ŁUŃSKA Emilia 231ZŁOTÓWK-Open15K 1500:00:0600:25:09.2500:25:15.85+00:04:145:0111.9
16GROBELNA Angelika 234BYDGOSZCZ NA STARTNIEMCZK-Open16K 1600:00:3700:25:10.8000:25:48.45+00:04:165:0211.9
17PĄCZEK Agata 123SZUBINK-Open17K 1700:00:0900:25:24.1000:25:33.30+00:04:295:0411.8
18MAZUREK Anna 347HEROBOXŚWIECIEK-Open18K 1800:00:1400:25:34.5000:25:49.00+00:04:395:0711.7
19PAWLEWSKA Klaudia 122SPORTWAYBYDGOSZCZK-Open19K 1900:00:1200:25:41.2000:25:53.85+00:04:465:0811.7
20POTRZEBOWSKA Agata 26DEAFBYDGOSZCZK-Open20K 2000:00:0800:25:42.9000:25:51.70+00:04:485:0811.7
21SOBOLEWSKA Aleksandra 300BYDGOSZCZK-Open21K 2100:00:0600:25:59.7000:26:05.85+00:05:055:1111.5
22SOBOL Magdalena 124NAKŁO NAD NOTECIĄK-Open22K 2200:00:0500:26:01.0000:26:06.10+00:05:065:1211.5
23GABRICH Żanetta 384BYDGOSZCZK-Open23K 2300:00:1600:26:06.3000:26:22.65+00:05:115:1311.5
24BARTKOWSKA Ewelina 414TORUŃK-Open24K 2400:00:1800:26:35.2000:26:54.00+00:05:405:1911.3
25CZERWIŃSKA Joanna 185BYDGOSZCZK-Open25K 2500:00:2100:26:49.5500:27:10.80+00:05:545:2111.2
26BRZEZIŃSKA Marta 353BYDGOSZCZK-Open26K 2600:00:1700:26:52.2500:27:09.70+00:05:575:2211.2
27CIEŚLAK Hanna 385BYDGOSZCZK-Open27K 2700:00:2100:27:03.7500:27:24.75+00:06:095:2411.1
28AFELT Luiza 38BYDGOSZCZK-Open28K 2800:00:1000:27:12.3500:27:23.25+00:06:175:2611
29KUJDA Dorota 115OSIELSKOK-Open29K 2900:00:2000:27:17.2000:27:37.20+00:06:225:2711
30ORLICKA Donata 381ZŁAWIEŚ WIELKAK-Open30K 3000:00:1800:27:21.4000:27:39.75+00:06:265:2811
31SZKARPIETINA Anna 135BRZEŚĆ KUJAWSKIK-Open31K 3100:00:1700:27:27.2000:27:45.05+00:06:325:2910.9
32SZYNWELSKA Marlena 155BYDGOSZCZK-Open32K 3200:00:2500:27:30.8500:27:56.50+00:06:365:3010.9
33NIKOŁAJCZYK Agnieszka 280SWIECIEK-Open33K 3300:00:3600:27:34.2500:28:10.45+00:06:395:3010.9
34GADZIŃSKA Aleksandra 27989-120 POTULICEK-Open34K 3400:00:1600:27:38.4500:27:54.85+00:06:435:3110.9
35KLIMCZAK Justyna 342RUN PASJABYDGOSZCZK-Open35K 3500:00:3400:27:39.3000:28:13.80+00:06:445:3110.8
36DŁUGOŃSKA Beata 69GRUDZIĄDZK-Open36K 3600:00:0700:27:41.5500:27:48.70+00:06:465:3210.8
37BOROWICZ Małgorzata 222BYDGOSZCZK-Open37K 3700:00:1900:27:49.9000:28:09.30+00:06:555:3410.8
38PRZYBYLSKA Grażyna 294SLKB, BYDGOSZCZ NA STARTBYDGOSZCZK-Open38K 3800:00:3800:27:58.8000:28:37.00+00:07:045:3510.7
39WITKOWSKA Katarzyna 207BYDGOSZCZK-Open39K 3900:00:3800:27:59.6500:28:38.30+00:07:055:3610.7
40LEWANDOWSKA Monika 393BYDGOSZCZK-Open40K 4000:00:2500:28:07.7500:28:32.80+00:07:135:3710.7
41JACKOWIAK-ZALEWSKA Agnieszka 427BYDGOSZCZK-Open41K 4100:00:1300:28:07.8000:28:21.75+00:07:135:3710.7
42ŁUKASZEWSKA Grażyna 218BYDGOSZCZK-Open42K 4200:00:2300:28:12.3500:28:35.80+00:07:175:3810.6
43DOBOSIEWICZ Anna Maria 74BYDGOSZCZK-Open43K 4300:00:1900:28:14.8500:28:34.45+00:07:205:3910.6
44PAWLEWSKA Joanna 121SPORTWAYBYDGOSZCZK-Open44K 4400:00:1700:28:16.0500:28:34.00+00:07:215:3910.6
45WERKOWSKA Justyna 163BYDGOSZCZK-Open45K 4500:00:1800:28:18.4500:28:36.70+00:07:235:3910.6
46JELEŃ Agnieszka 415VEGE RUNNERSBYDGOSZCZK-Open46K 4600:00:3600:28:20.7500:28:57.65+00:07:265:4010.6
47KOCHAŃSKA Wioletta 89PATEREKK-Open47K 4700:00:1000:28:23.8000:28:34.00+00:07:295:4010.6
48KONICZYŃSKA Zuzanna 451K-Open48K 4800:00:0700:28:25.5500:28:33.05+00:07:305:4110.6
49SZATKOWSKA Beata 132BYDGOSZCZK-Open49K 4900:00:5000:28:26.0000:29:16.60+00:07:315:4110.6
50TYLKOWSKA Marta 137BYDGOSZCZK-Open50K 5000:00:3400:28:28.7000:29:03.30+00:07:345:4110.5
51STAROŃ Monika 225BYDGOSKIE ŻÓŁWIEBYDGOSZCZK-Open51K 5100:00:1000:28:29.8500:28:40.05+00:07:355:4210.5
52CISZEWSKA Emilia 266BYDGOSZCZK-Open52K 5200:00:1300:28:34.2500:28:47.60+00:07:395:4210.5
53OLEJNICZAK Patrycja 250OSIĘCINYK-Open53K 5300:00:2800:28:47.2000:29:15.35+00:07:525:4510.4
54DYWICKA Karolina 70BIAŁE BŁOTAK-Open54K 5400:00:1600:28:47.2500:29:04.10+00:07:525:4510.4
55KORDZIELEWSKA Sandra 378BYDGOSZCZK-Open55K 5500:00:5500:28:50.1000:29:45.25+00:07:555:4610.4
56KUBIAK-KUJAWA Joanna 184BYDGOSZCZK-Open56K 5600:00:2600:28:52.0500:29:18.20+00:07:575:4610.4
57NELKE Monika 34BYDGOSZCZK-Open57K 5700:00:4500:28:53.0000:29:38.15+00:07:585:4610.4
58WAJER Marita 42ŚLESINK-Open58K 5800:00:2200:29:00.1000:29:22.15+00:08:055:4810.3
59TUSZYŃSKA Anna 318ŚWIECIEK-Open59K 5900:00:1000:29:01.9000:29:12.60+00:08:075:4810.3
60FRYDRYCHOWICZ Lilianna 75BYDGOSZCZK-Open60K 6000:00:2100:29:03.4000:29:25.10+00:08:085:4810.3
61BUKOWINSKA Grażyna 402BYDGOSZCZK-Open61K 6100:00:2100:29:07.8000:29:29.05+00:08:135:4910.3
62PIOTROWSKA Małgorzata 110ACHI&GOCHIŚWIECIEK-Open62K 6200:00:1900:29:08.1000:29:27.80+00:08:135:4910.3
63CHYLIŃSKA Dorota 442K-Open63K 6300:00:2400:29:10.8000:29:35.40+00:08:165:5010.3
64KUFLEWICZ Justyna 194BYDGOSZCZK-Open64K 6400:00:3800:29:19.9000:29:58.40+00:08:255:5210.2
65KUBICKA Olga 407BYDGOSZCZK-Open65K 6500:00:2400:29:25.9500:29:50.45+00:08:315:5310.2
66KAŹMIERCZAK Gosia 227BYDGOSZCZK-Open66K 6600:00:4800:29:32.0500:30:20.80+00:08:375:5410.2
67KILIŃSKA Magdalena 106HELIX POMATIAŻOŁĘDOWOK-Open67K 6700:00:1200:29:32.1500:29:44.70+00:08:375:5410.2
68ALEKSANDER Alicja 214POTULICEK-Open68K 6800:00:4700:29:32.6500:30:20.50+00:08:385:5410.2
69STRZAŁKOWSKA-WARMUZ Iwona 9BYDGOSZCZK-Open69K 6900:00:1700:29:34.5000:29:52.05+00:08:395:5510.1
70GIPP Małgorzata 305BYDGOSZCZK-Open70K 7000:00:4200:29:35.4500:30:17.90+00:08:405:5510.1
71KORBEL Ewa 119BYDGOSZCZK-Open71K 7100:00:3600:29:41.4500:30:17.65+00:08:465:5610.1
72NOWAK Mariola 92BYDGOSZCZK-Open72K 7200:00:2300:29:44.0500:30:07.50+00:08:495:5610.1
73BORAKIEWICZ Agnieszka 417GOŁAŃCZK-Open73K 7300:00:2900:29:45.6000:30:15.15+00:08:515:5710.1
74GÓRSKA Agnieszka 269BYDGOSZCZK-Open74K 7400:00:2800:29:47.0000:30:15.90+00:08:525:5710.1
75SMOCZYŃSKA Agnieszka 171BYDGOSZCZK-Open75K 7500:00:3300:29:51.1500:30:24.30+00:08:565:5810.1
76NALEWALSKA Justyna 422SERCE TYBETUBYDGOSZCZK-Open76K 7600:00:3900:29:51.8000:30:31.40+00:08:575:5810
77AUGUSTYNOWICZ Aurelia 321RCI BYDGOSZCZBYDGOSZCZK-Open77K 7700:00:1000:29:51.8500:30:02.75+00:08:575:5810
78WALCZAK Joanna 299ŚWIECIEK-Open78K 7800:00:3700:29:56.5500:30:34.00+00:09:015:5910
79TYKWIŃSKA Agnieszka 107BYDGOSZCZK-Open79K 7900:00:2100:30:00.5500:30:22.30+00:09:056:0010
80BRZOZOWSKA Jolanta 364BYDGOSZCZK-Open80K 8000:00:2400:30:01.7000:30:26.50+00:09:076:0010
81KURZAWA Iwona 254KCYNIAK-Open81K 8100:00:2800:30:02.3500:30:30.90+00:09:076:0010
82BUCHOLC Martyna 389BYDGOSZCZK-Open82K 8200:00:1400:30:04.0000:30:18.30+00:09:096:0010
83FRELICHOWSKA Karolina 36CB163BYDGOSZCZK-Open83K 8300:00:4100:30:08.3500:30:50.20+00:09:136:0110
84KUTKA Czesia 241BYDGOSZCZK-Open84K 8400:00:2800:30:09.0500:30:37.95+00:09:146:0110
85SOBOTA Beata 16BIAŁE BŁOTAK-Open85K 8500:00:3400:30:14.3500:30:49.05+00:09:196:039.9
86KOWALSKA Justyna 216BYDGOSZCZK-Open86K 8600:00:2600:30:17.6000:30:44.50+00:09:236:039.9
87JARMOŁOWICZ Aleksandra 351BYDGOSZCZK-Open87K 8700:00:5100:30:18.0500:31:09.55+00:09:236:039.9
88PIOTROWICZ Ewa 454K-Open88K 8800:00:2500:30:22.5500:30:48.05+00:09:276:049.9
89KOTŁOWSKA Marlena 285KWIDZYNK-Open89K 8900:00:2200:30:22.8000:30:45.40+00:09:286:049.9
90FRISCHKE Agnieszka 29BYDGOSZCZK-Open90K 9000:00:4300:30:23.6000:31:07.20+00:09:296:049.9
91KOSZOWSKA Ania 32BYDGOSZCZK-Open91K 9100:00:4300:30:26.2500:31:10.00+00:09:316:059.9
92WAŁCZYK Iwona 436PRZYŁUBIEK-Open92K 9200:00:3600:30:31.2500:31:08.20+00:09:366:069.8
93WEGNER Karolina 435SOLEC KUJAWSKIK-Open93K 9300:00:3600:30:31.4000:31:08.05+00:09:366:069.8
94DRZEWIECKA Magdalena 443K-Open94K 9400:00:2500:30:32.9500:30:58.60+00:09:386:069.8
95PRZYBYLSKA Paulina 48BYDGOSZCZK-Open95K 9500:00:3900:30:36.5500:31:16.15+00:09:416:079.8
96GRUŻEWSKA Justyna 117BYDGOSZCZK-Open96K 9600:00:1400:30:37.8500:30:51.85+00:09:436:079.8
97KUŹNIAR Melisa 249BYDGOSZCZK-Open97K 9700:00:1400:30:37.9500:30:52.45+00:09:436:079.8
98GURZYŃSKA Anna 240KOSOWIZNAK-Open98K 9800:00:1500:30:40.3000:30:55.85+00:09:456:089.8
99ŚWIDERSKA Aleksandra 304BYDGOSZCZK-Open99K 9900:00:3400:30:46.9000:31:21.20+00:09:526:099.7
100KIELIK Monika 47MONIKA KIELIKBOBROWNIKIK-Open100K 10000:00:2400:30:48.3000:31:13.00+00:09:536:099.7
101NAPIÓRKOWSKA Ewa 146BUDGOSZCZK-Open101K 10100:00:2100:30:54.4500:31:16.35+00:09:596:119.7
102JAGIELSKA Patrycja 397KOTOMIERZK-Open102K 10200:00:1300:30:55.6000:31:08.95+00:10:016:119.7
103HELSZTAJN Anna 340MAKSYMILIANOWOK-Open103K 10300:00:1600:30:56.2500:31:12.75+00:10:016:119.7
104WAWRZYNIAK Anna 341BYDGOSZCZK-Open104K 10400:00:1600:30:56.7500:31:13.55+00:10:026:119.7
105MAŃKOWSKA Kamila 339BYDGOSZCZK-Open105K 10500:00:1500:30:57.0000:31:12.80+00:10:026:119.7
106SZEWCZYK Ola 206LUCIEŃK-Open106K 10600:00:4100:30:58.5000:31:39.60+00:10:036:119.7
107CYBUL Anna 390BYDGOSZCZK-Open107K 10700:00:1600:31:07.7000:31:24.25+00:10:136:139.6
108ŁABUŚ Magda 410KORNELINK-Open108K 10800:00:2100:31:07.8000:31:29.10+00:10:136:139.6
109SAK Anna 336DECATHLON TEAM INOWROCŁAWINOWROCŁAWK-Open109K 10900:00:3000:31:08.5000:31:39.20+00:10:136:139.6
110WRÓBLEWSKA Maja 253BYDGOSZCZK-Open110K 11000:00:2700:31:10.2500:31:38.05+00:10:156:149.6
111JASIULEWICZ Marta 306BYDGOSZCZK-Open111K 11100:00:2500:31:14.4500:31:39.50+00:10:196:149.6
112KUBIAK Agnieszka 160BYDGOSZCZK-Open112K 11200:00:1700:31:17.6000:31:35.55+00:10:236:159.6
113CZERNIEJEWSKA Monika 126BYDGOSZCZK-Open113K 11300:00:1100:31:22.7000:31:34.30+00:10:286:169.6
114NOWACKA Aleksandra 420BYDGOSZCZK-Open114K 11400:00:4500:31:25.2500:32:11.15+00:10:306:179.5
115GIERCZAK Dorota 82BYDGOSZCZK-Open115K 11500:00:3900:31:27.5500:32:06.60+00:10:326:179.5
116KRAJEWSKA Izabela 166SICIENKOK-Open116K 11600:00:3900:31:30.7500:32:09.85+00:10:366:189.5
117ZATOŃ Bożena 354RUN PASJABYDGOSZCZK-Open117K 11700:00:4100:31:33.7500:32:14.85+00:10:396:189.5
118PESTKA Anna 387BYDGOSZCZK-Open118K 11800:00:3300:31:36.0500:32:09.55+00:10:416:199.5
119PIÓRKOWSKA Aga 49BYDGOSZCZK-Open119K 11900:00:4700:31:37.2000:32:24.45+00:10:426:199.5
120JAROSZEWSKA Anna 229DEEP FORESTTRYSZCZYNK-Open120K 12000:00:4600:31:37.6000:32:24.35+00:10:436:199.5
121ROSIAK Aleksandra 433MAKSYMILIANOWOK-Open121K 12100:00:3500:31:39.8000:32:15.50+00:10:456:209.5
122PAPROCKA Małgorzata 15BYDGOSZCZK-Open122K 12200:00:2800:31:44.9500:32:13.60+00:10:506:219.4
123NOVAKOVIĆ Maja 434WARSZAWAK-Open123K 12300:00:2200:31:47.9000:32:09.95+00:10:536:219.4
124OŻGA Agnieszka 24BYDGOSZCZK-Open124K 12400:00:3900:31:48.7500:32:28.10+00:10:546:219.4
125ŚLEDZIŃSKA Paulina 248OSIELSKOK-Open125K 12500:00:3300:31:50.4000:32:23.40+00:10:556:229.4
126KOWALIK Anna 308BYDGOSZCZK-Open126K 12600:00:1500:31:53.8000:32:08.90+00:10:596:229.4
127TATERA Daria 55BYDGOSZCZK-Open127K 12700:00:1800:31:59.4500:32:18.35+00:11:046:249.4
128THIEDE Ola 130ŚWIECIEK-Open128K 12800:00:0000:32:04.0000:32:04.00+00:11:096:249.4
129FOSS Dorota 392LEGE ARTISBYDGOSZCZK-Open129K 12900:00:4000:32:08.0000:32:48.60+00:11:136:259.3
130DALKA Renata 78GRUDZIĄDZK-Open130K 13000:00:0700:32:09.8500:32:17.10+00:11:156:269.3
131BEDNAREK Grażyna 446RUN PASJAK-Open131K 13100:00:4100:32:19.4000:33:01.15+00:11:246:289.3
132KWIATKOWSKA Aleksandra 348BYDGOSZCZK-Open132K 13200:00:3400:32:23.5500:32:57.95+00:11:286:289.3
133TREPANOWSKA Katarzyna 50PRZYŁEKIK-Open133K 13300:00:3500:32:25.2500:33:01.15+00:11:306:299.2
134DUKAT Olga 400BYDGOSZCZK-Open134K 13400:00:1100:32:34.0500:32:45.40+00:11:396:309.2
135PALUSZAK Katarzyna 83INOWROCŁAWK-Open135K 13500:00:3500:32:35.9000:33:11.20+00:11:416:319.2
136FILIPEK Weronika 204BYDGOSZCZK-Open136K 13600:00:3200:32:41.6500:33:14.10+00:11:476:329.2
137KUJAWA Magdalena 282GOŚCIERADZK-Open137K 13700:00:4300:32:44.6000:33:28.45+00:11:506:339.2
138KONOWALSKA Agnieszka 406ŻNINK-Open138K 13800:00:2000:32:48.6000:33:08.90+00:11:546:339.1
139WYSOCKA Kamila 17BYDGOSZCZK-Open139K 13900:00:3100:32:54.4500:33:25.60+00:11:596:349.1
140NEVECHERIA Yanina 310BYDGOSZCZK-Open140K 14000:00:0700:32:57.1500:33:04.80+00:12:026:359.1
141SZABLICKA Katarzyna 66POLSKA GRUPA BIEGOWAGRUDZIĄDZK-Open141K 14100:00:1300:32:57.8500:33:11.55+00:12:036:359.1
142PODCZASKA Katarzyna 25ALEKSANDRÓW KUJAWSKIK-Open142K 14200:00:1400:32:58.2500:33:12.25+00:12:036:359.1
143KROPIŃSKA Monika 329ZAMOŚĆK-Open143K 14300:00:2600:32:59.9500:33:26.70+00:12:056:369.1
144ZIELIŃSKA Dorota 257BYDGOSZCZK-Open144K 14400:00:2400:33:02.3000:33:26.60+00:12:076:369.1
145SOBIERAJ Magdalena 101GRUDZIĄDZK-Open145K 14500:00:1000:33:09.4500:33:20.15+00:12:146:389
146JEGIERSKA Anna 62AMATORKAGRUDZIĄDZK-Open146K 14600:00:1000:33:09.5500:33:20.40+00:12:146:389
147KUBALEWSKA Grażyna 245BYDGOSZCZK-Open147K 14700:00:2300:33:11.6500:33:35.15+00:12:176:389
148KOWALSKA Karolina 377BYDGOSZCZK-Open148K 14800:00:3500:33:19.3000:33:54.80+00:12:246:399
149KOWALSKA Irena 193BYDGOSZCZK-Open149K 14900:00:3400:33:19.6500:33:54.45+00:12:256:409
150LEWANDOWSKA Beata 212BYDGOSZCZK-Open150K 15000:00:3100:33:21.9000:33:53.25+00:12:276:409
151MIELCAREK Ania 314BYDGOSZCZK-Open151K 15100:00:5000:33:32.1000:34:22.60+00:12:376:428.9
152PIOTROWICZ Karolina 455K-Open152K 15200:00:2500:33:38.4500:34:04.40+00:12:436:438.9
153KALACHURKA Wioletta 277ŚWIECIE NAD OSĄK-Open153K 15300:00:1800:33:44.7500:34:03.00+00:12:506:458.9
154DAGOW Justyna 276CHEŁMNOK-Open154K 15400:00:1800:33:44.9000:34:03.10+00:12:506:458.9
155TROCKA Agnieszka 148BYDGOSZCZK-Open155K 15500:00:3000:33:50.5500:34:21.25+00:12:556:468.9
156SZCZYPIŃSKA Justyna 271BYDGOSZCZK-Open156K 15600:00:1100:33:55.3500:34:07.25+00:13:006:478.8
157GLINKOWSKA Joanna 149STRZELCE GÓRNEK-Open157K 15700:00:3000:34:13.4500:34:44.00+00:13:186:508.8
158BURCZUK Aleksandra 448K-Open158K 15800:00:3000:34:20.3500:34:50.45+00:13:256:528.7
159TUBISZ Agnieszka 18BYDGOSZCZK-Open159K 15900:00:2700:34:22.2500:34:49.65+00:13:276:528.7
160MINISZEWSKA Irena 394BYDGOSZCZK-Open160K 16000:00:4000:34:22.6500:35:02.85+00:13:286:528.7
161IWICKA-KOWALSKA Katarzyna 175BYDGOSZCZK-Open161K 16100:00:1700:34:30.4500:34:47.60+00:13:356:548.7
162NOWACKA Katarzyna 424BYDGOSZCZK-Open162K 16200:00:4600:34:30.8500:35:17.60+00:13:366:548.7
163NOGALSKA Aleksandra 303BYDGOSZCZK-Open163K 16300:00:3500:34:35.9000:35:11.20+00:13:416:558.7
164OLSZEWSKA Karolina 20BIAŁE BŁOTAK-Open164K 16400:00:3100:34:36.2500:35:07.45+00:13:416:558.7
165JAWORSKA Sylwia 332ŁABISZYNK-Open165K 16500:00:2400:34:39.3500:35:03.70+00:13:446:558.7
166KAMIŃSKA Marta 290NAKŁO NAD NOTECIĄK-Open166K 16600:00:4300:34:43.6500:35:27.55+00:13:496:568.6
167MISUN Mariola 258BBKTSZIELONKAK-Open167K 16700:00:4400:34:47.5500:35:32.45+00:13:526:578.6
168REKOWSKA Barbara 141KORONOWOK-Open168K 16800:00:4000:34:49.1500:35:29.40+00:13:546:578.6
169WELSBERG Magdalena 288BYDGOSZCZK-Open169K 16900:00:2900:34:52.1500:35:21.35+00:13:576:588.6
170MOCNA Anna 215BYDGOSZCZK-Open170K 17000:00:2900:34:55.5000:35:25.30+00:14:006:598.6
171SCHLABS Magdalena 93BYDGOSZCZK-Open171K 17100:00:2900:34:56.0500:35:25.25+00:14:016:598.6
172ANDRZEJCZAK Natalia 201KCYNIAK-Open172K 17200:00:3000:35:01.2000:35:31.60+00:14:067:008.6
173NOWAKOWSKA-ARENDT Agnieszka 5BYDGOSZCZK-Open173K 17300:00:1700:35:04.9000:35:22.20+00:14:107:018.6
174BRONK Justyna 457K-Open174K 17400:00:2300:35:05.9000:35:29.60+00:14:117:018.5
175PIECZARA Iwona 458K-Open175K 17500:00:2300:35:07.5000:35:30.95+00:14:127:018.5
176WRÓBLEWSKA Anna 72GRUDZIĄDZK-Open176K 17600:00:1000:35:21.8500:35:32.45+00:14:277:048.5
177KĄTNIK Dorota 220RUN PASJABYDGOSZCZK-Open177K 17700:00:3900:35:23.5500:36:03.45+00:14:287:048.5
178MAZUREK Anita 8BYDGOSZCZK-Open178K 17800:00:4500:35:32.1000:36:17.20+00:14:377:068.4
179MANOWSKA Arletta 94FUNDACJA HORYZONTBRZOZAK-Open179K 17900:00:3800:35:32.8500:36:11.35+00:14:387:068.4
180KUBICKA Violetta 41BYDGOSZCZK-Open180K 18000:00:4300:35:33.1000:36:16.95+00:14:387:068.4
181KISZKA Justyna 398RUN PASJABYDGOSZCZK-Open181K 18100:00:4100:35:35.3500:36:17.15+00:14:407:078.4
182CIECHOMSKA Magdalena 73TORUŃK-Open182K 18200:00:0900:35:38.0000:35:47.00+00:14:437:078.4
183SKROBACKA Izabela 52SOLEC KUJAWSKIK-Open183K 18300:00:2000:35:38.0000:35:58.20+00:14:437:078.4
184KNIOŁA Justyna 162STUDIO SZARKOWSKA & GENDERKABYDGOSZCZK-Open184K 18400:00:5000:35:43.0500:36:33.10+00:14:487:088.4
185KONOWECKA Ewa 429BYDGOSZCZK-Open185K 18500:00:2900:35:50.2000:36:19.30+00:14:557:108.4
186KANTOWICZ Marta 129BYDGOSZCZK-Open186K 18600:00:4800:35:50.8500:36:39.30+00:14:567:108.4
187GAWRONEK Maria 183BYDGOSZCZK-Open187K 18700:00:4800:35:51.0000:36:39.30+00:14:567:108.4
188OPAS Karolina 404BYDGOSZCZK-Open188K 18800:00:2400:35:53.9500:36:18.30+00:14:597:108.4
189NOWAKOWSKA Patrycja 51MUROWANIECK-Open189K 18900:00:4000:36:13.4000:36:54.10+00:15:187:148.3
190GRZELAKOWSKA Klaudyna 283OSIELSKOK-Open190K 19000:00:3200:36:15.4500:36:47.70+00:15:207:158.3
191POKORSKA Roma 391BYDGOSZCZK-Open191K 19100:00:4000:36:28.1000:37:08.30+00:15:337:178.2
192ASTUKIEWICZ Agnieszka 100BYDGOSZCZK-Open192K 19200:00:4400:36:36.7500:37:21.35+00:15:427:198.2
193PIECHOWIAK Oliwia 224SZUBINK-Open193K 19300:00:1700:36:43.6000:37:00.60+00:15:497:208.2
194CHMIELEWSKA Agnieszka 325BYDGOSZCZK-Open194K 19400:00:4000:36:45.4000:37:26.00+00:15:507:218.2
195NAZARUK Natalia 382BYDGOSZCZK-Open195K 19500:00:3300:37:04.3000:37:38.10+00:16:097:258.1
196OSUCH Małgorzata 152BYDGOSZCZK-Open196K 19600:00:4400:37:41.5000:38:26.00+00:16:467:328
197BARANOWSKA Weronika 331ŁABISZYNK-Open197K 19700:00:2500:37:48.2000:38:13.40+00:16:537:337.9
198WITKOWSKA Marta 452K-Open198K 19800:00:3200:38:07.6000:38:40.45+00:17:137:377.9
199ROZWOROWSKA-WOLAŃSKA Julia 226BYDGOSZCZK-Open199K 19900:00:3900:38:15.1000:38:54.70+00:17:207:397.8
200WENCKA Magdalena 190BYDGOSZCZK-Open200K 20000:00:3800:38:16.7500:38:55.00+00:17:227:397.8
201NEYDER Marzena 309BYDGOSZCZK-Open201K 20100:00:0900:38:21.1500:38:30.20+00:17:267:407.8
202SARUL Karolina 151BYDGOSZCZK-Open202K 20200:00:4400:38:53.3000:39:37.95+00:17:587:467.7
203GOLIK Magdalena 169BYDGOSZCZK-Open203K 20300:00:4900:39:33.6000:40:22.75+00:18:397:547.6
204URBAŃCZYK Anna 28BYDGOSZCZK-Open204K 20400:00:3300:40:27.5000:41:01.40+00:19:328:057.4
205RÓŻYCKA Katarzyna 87TOCOLUBIEJÓZEFOSŁAWK-Open205K 20500:00:3300:40:28.0500:41:01.40+00:19:338:057.4
206TOMCZAK Krzysia 408ŁOCHOWOK-Open206K 20600:00:4200:41:46.4000:42:28.80+00:20:518:217.2
Znaleziono 206 wynik(ów)